FW2178 Weather Reports


Display with metric or nautical units.
time (UTC)temp
F
wind
direction
speed
MPH
gust
MPH
rain 1hr
in
rain 24hr
in
rain mn
in
humidity
%
barometer
mb
20260901140838 53 126 0.0 0.0 0.00 0.00 0.00 97 1008.3
20260901140338 53 126 0.0 4.0 0.00 0.00 0.00 97 1008.2
20260901135838 53 125 0.0 4.0 0.00 0.00 0.00 97 1008.1
20260901135337 53 122 0.0 0.0 0.00 0.00 0.00 97 1008.1
20260901134837 53 146 0.0 0.0 0.00 0.00 0.00 97 1008.1
20260901134339 53 146 0.0 0.0 0.00 0.00 0.00 97 1008.0
20260901134119 53 146 0.0 0.0 0.00 0.00 0.00 97 1007.9
20260901133337 53 146 0.0 0.0 0.00 0.00 0.00 97 1008.0
20260901132836 53 145 0.0 0.0 0.00 0.00 0.00 97 1007.9
20260901132337 53 145 0.0 0.0 0.00 0.00 0.00 97 1007.9
20260901131836 53 145 0.0 0.0 0.00 0.00 0.00 97 1008.1
20260901131338 53 146 0.0 0.0 0.00 0.00 0.00 97 1007.9
20260901130836 53 146 0.0 0.0 0.00 0.00 0.00 97 1007.9
20260901130342 52 146 0.0 0.0 0.00 0.00 0.00 97 1007.9
20260901125842 52 145 0.0 0.0 0.00 0.00 0.00 97 1008.0
20260901125340 52 145 0.0 0.0 0.00 0.00 0.00 97 1007.7
20260901124836 52 145 0.0 0.0 0.00 0.00 0.00 97 1007.8
20260901124337 52 145 0.0 6.0 0.00 0.00 0.00 97 1007.7
20260901124140 52 145 1.0 4.0 0.00 0.00 0.00 97 1007.7
20260901123337 52 145 0.0 0.0 0.00 0.00 0.00 97 1007.7
20260901122840 52 145 0.0 0.0 0.00 0.00 0.00 97 1007.6
20260901122339 52 146 0.0 0.0 0.00 0.00 0.00 97 1007.7
20260901121837 52 145 0.0 1.0 0.00 0.00 0.00 97 1007.4
20260901121339 53 145 0.0 1.0 0.00 0.00 0.00 96 1007.5
20260901120837 53 146 0.0 0.0 0.00 0.00 0.00 97 1007.3
20260901120337 52 146 0.0 0.0 0.00 0.00 0.00 97 1007.5
20260901115845 53 146 0.0 0.0 0.00 0.00 0.00 97 1007.5
20260901115338 53 146 0.0 0.0 0.00 0.00 0.00 97 1007.6
20260901114837 52 146 0.0 0.0 0.00 0.00 0.00 97 1007.6
20260901114337 52 146 0.0 0.0 0.00 0.00 0.00 97 1007.4
20260901113836 52 146 0.0 0.0 0.00 0.00 0.00 96 1007.4
20260901113337 52 146 0.0 0.0 0.00 0.00 0.00 96 1007.7
20260901112836 52 145 0.0 0.0 0.00 0.00 0.00 96 1007.6
20260901112337 52 145 0.0 0.0 0.00 0.00 0.00 96 1007.5
20260901111836 52 145 0.0 0.0 0.00 0.00 0.00 96 1007.3
20260901111337 53 145 0.0 0.0 0.00 0.00 0.00 96 1007.5
20260901110836 53 145 0.0 0.0 0.00 0.00 0.00 96 1007.5
20260901110337 53 146 0.0 0.0 0.00 0.00 0.00 96 1007.5
20260901110209 53 146 0.0 0.0 0.00 0.00 0.00 96 1007.5
20260901105337 53 146 0.0 0.0 0.00 0.00 0.00 96 1007.4
20260901104836 53 146 0.0 0.0 0.00 0.00 0.00 96 1007.4
20260901104337 53 146 0.0 0.0 0.00 0.00 0.00 95 1007.5
20260901103836 53 146 0.0 0.0 0.00 0.00 0.00 95 1007.3
20260901103350 53 146 0.0 0.0 0.00 0.00 0.00 95 1007.7
20260901102836 53 146 0.0 0.0 0.00 0.00 0.00 95 1007.6
20260901102337 53 146 0.0 0.0 0.00 0.00 0.00 95 1007.8
20260901101836 53 145 0.0 0.0 0.00 0.00 0.00 95 1007.7
20260901101338 53 145 0.0 0.0 0.00 0.00 0.00 95 1007.3
20260901100851 53 145 0.0 0.0 0.00 0.00 0.00 95 1007.5
20260901100338 53 146 0.0 0.0 0.00 0.00 0.00 94 1007.6
20260901095836 54 145 0.0 0.0 0.00 0.00 0.00 94 1007.3
20260901095337 54 145 0.0 0.0 0.00 0.00 0.00 94 1007.4
20260901094836 54 145 0.0 0.0 0.00 0.00 0.00 94 1007.6
20260901094337 54 145 0.0 0.0 0.00 0.00 0.00 94 1007.2
20260901093836 54 145 0.0 0.0 0.00 0.00 0.00 94 1007.4
20260901093350 54 145 0.0 0.0 0.00 0.00 0.00 94 1007.4
20260901092836 54 146 0.0 0.0 0.00 0.00 0.00 94 1007.5
20260901092337 54 146 0.0 0.0 0.00 0.00 0.00 94 1007.5
20260901091836 54 146 0.0 0.0 0.00 0.00 0.00 93 1007.5
20260901091337 54 146 0.0 0.0 0.00 0.00 0.00 93 1007.4
20260901090836 54 146 0.0 0.0 0.00 0.00 0.00 93 1007.4
20260901090337 54 146 0.0 0.0 0.00 0.00 0.00 93 1007.3
20260901085835 55 146 0.0 0.0 0.00 0.00 0.00 93 1007.4
20260901085337 55 146 0.0 0.0 0.00 0.00 0.00 93 1007.4
20260901084836 55 146 0.0 0.0 0.00 0.00 0.00 92 1007.4
20260901084337 55 146 0.0 0.0 0.00 0.00 0.00 92 1007.3
20260901083836 55 146 0.0 0.0 0.00 0.00 0.00 92 1007.3
20260901083337 55 146 0.0 0.0 0.00 0.00 0.00 92 1007.4
20260901083128 55 146 0.0 0.0 0.00 0.00 0.00 92 1007.1
20260901082337 55 145 0.0 0.0 0.00 0.00 0.00 92 1007.3
20260901081836 55 146 0.0 0.0 0.00 0.00 0.00 91 1007.2
20260901081337 56 146 0.0 0.0 0.00 0.00 0.00 91 1007.3
20260901080836 55 146 0.0 0.0 0.00 0.00 0.00 91 1007.3
20260901080337 56 146 0.0 0.0 0.00 0.00 0.00 91 1007.4
20260901075836 56 146 0.0 0.0 0.00 0.00 0.00 90 1007.5
20260901075337 56 146 0.0 0.0 0.00 0.00 0.00 90 1007.4
20260901074841 56 146 0.0 0.0 0.00 0.00 0.00 90 1007.2
20260901074341 56 146 0.0 0.0 0.00 0.00 0.00 89 1007.3
20260901073839 56 146 0.0 0.0 0.00 0.00 0.00 89 1007.1
20260901073418 56 146 0.0 0.0 0.00 0.00 0.00 89 1007.1
20260901072618 56 146 0.0 0.0 0.00 0.00 0.00 89 1007.0
20260901071838 56 146 0.0 0.0 0.00 0.00 0.00 89 1007.1
20260901071338 56 146 0.0 0.0 0.00 0.00 0.00 89 1007.3
20260901070835 56 146 0.0 0.0 0.00 0.00 0.00 88 1007.2
20260901070337 56 146 0.0 0.0 0.00 0.00 0.00 88 1007.1
20260901065837 56 146 0.0 0.0 0.00 0.00 0.00 89 1007.2
20260901065339 57 146 0.0 0.0 0.00 0.00 0.00 89 1007.2
20260901064836 57 146 0.0 0.0 0.00 0.00 0.00 88 1007.4
20260901064340 57 146 0.0 0.0 0.00 0.00 0.00 88 1007.3
20260901063839 57 146 0.0 0.0 0.00 0.00 0.00 87 1007.0
20260901063337 57 146 0.0 0.0 0.00 0.00 0.00 88 1007.1
20260901062836 57 146 0.0 0.0 0.00 0.00 0.00 88 1007.3
20260901062342 58 146 0.0 0.0 0.00 0.00 0.00 88 1007.2
20260901061836 58 146 0.0 0.0 0.00 0.00 0.00 86 1007.2
20260901061337 58 146 0.0 0.0 0.00 0.00 0.00 86 1007.4
20260901060836 58 146 0.0 0.0 0.00 0.00 0.00 85 1007.3
20260901060337 58 146 0.0 0.0 0.00 0.00 0.00 86 1007.4
20260901060138 58 146 0.0 0.0 0.00 0.00 0.00 86 1007.6
20260901055337 59 146 0.0 0.0 0.00 0.00 0.00 86 1007.3
20260901054836 58 146 0.0 0.0 0.00 0.00 0.00 84 1007.4
20260901054350 59 146 0.0 0.0 0.00 0.00 0.00 85 1007.5
20260901053836 59 146 0.0 0.0 0.00 0.00 0.00 85 1007.3
20260901053337 59 146 0.0 0.0 0.00 0.00 0.00 84 1007.5
20260901052837 59 147 0.0 0.0 0.00 0.00 0.00 84 1007.5
20260901052337 59 147 0.0 0.0 0.00 0.00 0.00 85 1007.5
20260901051837 59 147 0.0 0.0 0.00 0.00 0.00 85 1007.6
20260901051337 59 147 0.0 0.0 0.00 0.00 0.00 84 1007.6
20260901050836 60 147 0.0 0.0 0.00 0.00 0.00 85 1007.5
20260901050623 60 147 0.0 0.0 0.00 0.00 0.00 83 1007.7
20260901050152 60 147 0.0 0.0 0.00 0.00 0.00 84 1007.8
20260901045337 60 147 0.0 0.0 0.00 0.00 0.00 84 1007.3
20260901044836 60 147 0.0 0.0 0.00 0.00 0.00 83 1007.7
20260901044337 60 147 0.0 0.0 0.00 0.00 0.00 83 1007.5
20260901043839 60 147 0.0 0.0 0.00 0.00 0.00 84 1007.4
20260901043338 60 147 0.0 0.0 0.00 0.00 0.00 83 1007.7
20260901042837 60 147 0.0 0.0 0.00 0.00 0.00 82 1007.5
20260901042337 60 147 0.0 0.0 0.00 0.00 0.00 82 1007.9
20260901041835 60 147 0.0 0.0 0.00 0.00 0.00 82 1007.8
20260901041643 60 147 0.0 0.0 0.00 0.00 0.00 81 1007.5
20260901040835 60 147 0.0 0.0 0.00 0.00 0.00 81 1007.4
20260901040337 61 147 0.0 0.0 0.00 0.00 0.00 81 1007.3
20260901035837 61 147 0.0 0.0 0.00 0.00 0.00 81 1007.6
20260901035336 61 147 0.0 0.0 0.00 0.00 0.00 81 1007.7
20260901034836 61 147 0.0 0.0 0.00 0.00 0.00 82 1007.5
20260901034337 62 147 0.0 0.0 0.00 0.00 0.00 80 1007.2
20260901033837 62 147 0.0 0.0 0.00 0.00 0.00 79 1007.3
20260901033336 62 147 0.0 0.0 0.00 0.00 0.00 80 1007.3
20260901033127 62 147 0.0 0.0 0.00 0.00 0.00 81 1007.2
20260901032639 62 147 0.0 0.0 0.00 0.00 0.00 79 1007.0
20260901032121 62 147 0.0 0.0 0.00 0.00 0.00 79 1007.1
20260901031336 62 147 0.0 0.0 0.00 0.00 0.00 79 1007.0
20260901030836 63 147 0.0 0.0 0.00 0.00 0.00 80 1006.9
20260901030336 63 147 0.0 0.0 0.00 0.00 0.00 79 1006.9
20260901025835 63 146 0.0 0.0 0.00 0.00 0.00 79 1006.9
20260901025338 63 147 0.0 0.0 0.00 0.00 0.00 79 1007.2
20260901025122 64 146 0.0 0.0 0.00 0.00 0.00 78 1006.7
20260901024335 64 146 0.0 0.0 0.00 0.00 0.00 77 1007.0
20260901023835 64 147 0.0 0.0 0.00 0.00 0.00 79 1007.1
20260901023335 64 147 0.0 0.0 0.00 0.00 0.00 78 1006.9
20260901022834 64 146 0.0 0.0 0.00 0.00 0.00 77 1007.1
20260901022339 65 147 0.0 0.0 0.00 0.00 0.00 77 1007.0
20260901022118 65 146 0.0 0.0 0.00 0.00 0.00 77 1007.1
20260901021336 66 146 0.0 0.0 0.00 0.00 0.00 77 1006.9
20260901020839 66 146 0.0 0.0 0.00 0.00 0.00 77 1007.0
20260901020336 66 147 0.0 0.0 0.00 0.00 0.00 77 1007.0
20260901015836 67 147 0.0 1.0 0.00 0.00 0.00 75 1007.1
20260901015338 67 146 0.0 1.0 0.00 0.00 0.00 72 1007.0
20260901014834 67 146 0.0 6.0 0.00 0.00 0.00 73 1006.8
20260901014335 67 147 0.0 11.0 0.00 0.00 0.00 74 1007.1
20260901014122 67 133 1.0 21.0 0.00 0.00 0.00 71 1007.1
20260901013333 67 146 0.0 15.0 0.00 0.00 0.00 75 1007.1
20260901012832 66 128 0.0 15.0 0.00 0.00 0.00 74 1007.2
20260901012337 66 129 0.0 0.0 0.00 0.00 0.00 75 1007.1
20260901012115 67 128 0.0 0.0 0.00 0.00 0.00 74 1007.0
20260901011333 67 129 0.0 0.0 0.00 0.00 0.00 73 1007.3
20260901010835 67 141 0.0 0.0 0.00 0.00 0.00 74 1007.2
20260901010333 67 131 0.0 0.0 0.00 0.00 0.00 72 1007.1
20260901010127 67 131 0.0 2.0 0.00 0.00 0.00 71 1007.2
20260901005337 68 131 0.0 6.0 0.00 0.00 0.00 69 1007.0
20260901004832 67 135 1.0 15.0 0.00 0.00 0.00 71 1006.9
20260901004332 67 128 1.0 15.0 0.00 0.00 0.00 71 1007.0
20260901003835 67 136 0.0 4.0 0.00 0.00 0.00 72 1006.9
20260901003332 67 135 0.0 4.0 0.00 0.00 0.00 70 1007.1
20260901002831 68 154 0.0 6.0 0.00 0.00 0.00 72 1007.2
20260901002337 68 121 0.0 15.0 0.00 0.00 0.00 70 1007.1
20260901002122 69 134 0.0 16.0 0.00 0.00 0.00 69 1007.1
20260901001332 69 132 0.0 16.0 0.00 0.00 0.00 65 1007.3
20260901000835 68 119 0.0 9.0 0.00 0.00 0.00 64 1007.1
20260901000332 69 122 0.0 0.0 0.00 0.00 0.00 69 1007.2
20260831235831 69 124 0.0 0.0 0.00 0.00 0.00 70 1007.6
20260831235336 70 123 0.0 4.0 0.00 0.00 0.00 64 1007.4
20260831234832 70 131 0.0 4.0 0.00 0.00 0.00 65 1007.7
20260831234332 70 105 0.0 8.0 0.00 0.00 0.00 59 1007.5
20260831234151 70 125 0.0 8.0 0.00 0.00 0.00 63 1007.5
20260831233332 69 128 0.0 14.0 0.00 0.00 0.00 71 1007.8
20260831232831 69 128 0.0 25.0 0.00 0.00 0.00 72 1007.7
20260831232335 70 127 0.0 25.0 0.00 0.00 0.00 64 1007.6
20260831232118 69 121 0.0 0.0 0.00 0.00 0.00 69 1007.8
20260831231332 70 121 0.0 3.0 0.00 0.00 0.00 69 1007.7
20260831230835 70 121 0.0 7.0 0.00 0.00 0.00 63 1007.9
20260831230333 70 104 1.0 11.0 0.00 0.00 0.00 63 1007.8
20260831225831 70 128 0.0 11.0 0.00 0.00 0.00 64 1007.8
20260831225337 70 96 0.0 8.0 0.00 0.00 0.00 64 1007.9
20260831224831 70 110 0.0 8.0 0.00 0.00 0.00 65 1008.2
20260831224332 70 83 0.0 7.0 0.00 0.00 0.00 66 1008.1
20260831223836 70 114 0.0 7.0 0.00 0.00 0.00 71 1008.1
20260831223332 70 116 2.0 6.0 0.00 0.00 0.00 61 1008.2
20260831222831 70 132 1.0 6.0 0.00 0.00 0.00 62 1008.1
20260831222642 70 137 0.0 4.0 0.00 0.00 0.00 61 1008.3
20260831221831 70 140 0.0 8.0 0.00 0.00 0.00 66 1008.3
20260831221659 70 108 0.0 24.0 0.00 0.00 0.00 64 1008.3
20260831221653 70 130 0.0 3.0 0.00 0.00 0.00 67 1008.4
20260831220337 70 129 1.0 24.0 0.00 0.00 0.00 60 1008.4
20260831215831 69 121 1.0 16.0 0.00 0.00 0.00 63 1008.5
20260831215334 69 58 0.0 7.0 0.00 0.00 0.00 69 1008.7
20260831214837 70 124 0.0 0.0 0.00 0.00 0.00 69 1008.6
20260831214332 69 143 0.0 4.0 0.00 0.00 0.00 61 1008.7
20260831213832 69 132 0.0 7.0 0.00 0.00 0.00 72 1008.9
20260831213637 69 131 1.0 7.0 0.00 0.00 0.00 65 1009.0
20260831212831 70 102 0.0 10.0 0.00 0.00 0.00 63 1009.0
20260831212332 70 132 0.0 10.0 0.00 0.00 0.00 64 1008.7
20260831211835 70 144 0.0 4.0 0.00 0.00 0.00 60 1008.8
20260831211331 0 0.0 0.0 0.00 0.00 0.00
20260831211109 0 0.0 0.0 0.00 0.00 0.00
20260831210622 0 0.0 0.0 0.00 0.00 0.00
20260831205835 0 0.0 0.0 0.00 0.00 0.00
20260831205332 0 0.0 0.0 0.00 0.00 0.00
20260831204840 0 0.0 0.0 0.00 0.00 0.00
20260831204332 0 0.0 0.0 0.00 0.00 0.00
20260831204057 0 0.0 0.0 0.00 0.00 0.00
20260831203336 0 0.0 0.0 0.00 0.00 0.00
20260831202834 0 0.0 0.0 0.00 0.00 0.00
20260831202331 0 0.0 0.0 0.00 0.00 0.00
20260831201836 0 0.0 0.0 0.00 0.00 0.00
20260831201331 0 0.0 0.0 0.00 0.00 0.00
20260831201136 0 0.0 0.0 0.00 0.00 0.00
20260831200603 0 0.0 0.0 0.00 0.00 0.00
20260831200103 0 0.0 0.0 0.00 0.00 0.00
20260831195845 0 0.0 0.0 0.00 0.00 0.00
20260831195102 0 0.0 0.0 0.00 0.00 0.00
20260831194602 0 0.0 0.0 0.00 0.00 0.00
20260831194102 0 0.0 0.0 0.00 0.00 0.00
20260831193602 0 0.0 0.0 0.00 0.00 0.00
20260831193108 0 0.0 0.0 0.00 0.00 0.00
20260831192554 0 0.0 0.0 0.00 0.00 0.00
20260831192052 0 0.0 0.0 0.00 0.00 0.00
20260831191549 0 0.0 0.0 0.00 0.00 0.00
20260831191051 0 0.0 0.0 0.00 0.00 0.00
20260831190549 0 0.0 0.0 0.00 0.00 0.00
20260831190043 0 0.0 0.0 0.00 0.00 0.00
20260831185542 0 0.0 0.0 0.00 0.00 0.00
20260831185039 0 0.0 0.0 0.00 0.00 0.00
20260831184539 0 0.0 0.0 0.00 0.00 0.00
20260831184034 0 0.0 0.0 0.00 0.00 0.00
20260831183531 0 0.0 0.0 0.00 0.00 0.00
20260831183312 0 0.0 0.0 0.00 0.00 0.00
20260831182531 0 0.0 0.0 0.00 0.00 0.00
20260831182032 0 0.0 0.0 0.00 0.00 0.00
20260831181826 0 0.0 0.0 0.00 0.00 0.00
20260831181030 0 0.0 0.0 0.00 0.00 0.00
20260831180531 0 0.0 0.0 0.00 0.00 0.00
20260831180356 0 0.0 0.0 0.00 0.00 0.00
20260831175532 0 0.0 0.0 0.00 0.00 0.00
20260831175032 0 0.0 0.0 0.00 0.00 0.00
20260831174532 0 0.0 0.0 0.00 0.00 0.00
20260831174030 0 0.0 0.0 0.00 0.00 0.00
20260831173530 0 0.0 0.0 0.00 0.00 0.00
20260831173030 0 0.0 0.0 0.00 0.00 0.00
20260831172556 0 0.0 0.0 0.00 0.00 0.00
20260831172546 0 0.0 0.0 0.00 0.00 0.00
20260831171530 0 0.0 0.0 0.00 0.00 0.00
20260831171030 0 0.0 0.0 0.00 0.00 0.00
20260831170531 0 0.0 0.0 0.00 0.00 0.00
20260831170030 0 0.0 0.0 0.00 0.00 0.00
20260831165818 0 0.0 0.0 0.00 0.00 0.00
20260831165236 0 0.0 0.0 0.00 0.00 0.00
20260831164030 59 154 0.0 3.0 0.00 0.00 0.00 86 1012.2
20260831163758 59 146 0.0 4.0 0.00 0.00 0.00 85 1012.2
20260831163031 59 155 0.0 4.0 0.00 0.00 0.00 86 1011.9
20260831162528 58 140 0.0 0.0 0.00 0.00 0.00 86 1012.1
20260831162324 58 125 0.0 0.0 0.00 0.00 0.00 90 1012.0
20260831161529 57 125 0.0 3.0 0.00 0.00 0.00 92 1012.1
20260831161028 56 115 0.0 3.0 0.00 0.00 0.00 97 1012.3
20260831160529 56 140 0.0 3.0 0.00 0.00 0.00 99 1012.2
20260831160029 56 136 0.0 0.0 0.00 0.00 0.00 99 1012.4
20260831155823 56 133 0.0 0.0 0.00 0.00 0.00 99 1012.1
20260831155029 55 133 0.0 0.0 0.00 0.00 0.00 99 1012.3
20260831154529 55 133 0.0 0.0 0.00 0.00 0.00 99 1012.4
20260831154028 55 133 0.0 0.0 0.00 0.00 0.00 99 1012.3
20260831153529 55 133 0.0 0.0 0.00 0.00 0.00 99 1012.4
20260831153029 55 133 0.0 0.0 0.00 0.00 0.00 99 1012.5
20260831152534 55 132 0.0 0.0 0.00 0.00 0.00 99 1012.6
20260831152033 54 132 0.0 0.0 0.00 0.00 0.00 99 1012.5
20260831151528 54 132 0.0 0.0 0.00 0.00 0.00 99 1012.5
20260831151028 54 132 0.0 0.0 0.00 0.00 0.00 99 1012.6
20260831150528 54 132 0.0 0.0 0.00 0.00 0.00 99 1012.6
20260831150056 53 132 0.0 0.0 0.00 0.00 0.00 99 1012.8
20260831145529 53 132 0.0 0.0 0.00 0.00 0.00 99 1012.3
20260831145029 53 132 0.0 0.0 0.00 0.00 0.00 99 1012.6
20260831144529 53 132 0.0 0.0 0.00 0.00 0.00 99 1012.8
20260831144030 53 132 0.0 0.0 0.00 0.00 0.00 99 1012.4
20260831143526 53 132 0.0 0.0 0.00 0.00 0.00 99 1012.5
20260831143023 53 132 0.0 0.0 0.00 0.00 0.00 99 1012.5
20260831142525 53 132 0.0 0.0 0.00 0.00 0.00 99 1012.4
20260831142023 53 132 0.0 0.0 0.00 0.00 0.00 99 1012.6
20260831141811 53 132 0.0 0.0 0.00 0.00 0.00 99 1012.4